Showing default

CENTISPACE-1 S9, 62578

Orbit data source: Space-Track

CENTISPACE-1 S9, 62578 is a payload satellite owned by Centispace (CN) in LEO that was launched on Mon, 13 Jan 2025 UTC via a JIELONG-3 launch vehicle from the Yellow Sea Launch Area, China (YSLA). Payload-class satellites include a variety of spacecraft equipped with specific instruments for various scientific and technological missions. These include communications satellites like Starlink; space stations such as the ISS; scientific satellites like the Hubble; Earth observation satellites from companies like Planet Labs, Umbra, and HawkEye 360; GPS; miniature CubeSats for education and research; and military/defense satellites.

Loading next visibility...
Identifier
62578, 2025-007D
Orbit
LEO
Country
Flag of CNCN / PRC
Related business
Manufacturer
DFH Shenzhen
Mission
Operational Commercial Nav/Com
Bus & Motor
WK01, Unknown motor
Mass
140 kg wet, 140 kg dry
Launch date (UTC)
2025-01-13 (11 months ago)
Launch vehicle
JIELONG-3
Launch site
Yellow Sea Launch Area, China (YSLA)
Object type
Payload
Rocket body
Debris
Shape & HBR
Box + 2 Pan, 1.0 m
Radar Cross Section
0.833 m², Medium (>0.1 m² and < 1m²)

Expand to show TLE details & history
Last TLE update: 12 hours ago

TLE from 12 hours ago
0 CENTISPACE-1 S9
1 62578U 25007D   25351.42025342 -.00000235  00000-0 -39818-4 0  9995
2 62578  54.9804 217.8666 0008831 253.9396 106.0605 14.17088130 49445
Epoch: 2025-12-17T10:05Z
TLE epoch observation values (Epoch: 2025-12-17T10:05:09.895Z)
Latitude
-0°
Longitude
-19.715°
Altitude
838.024 km
Speed
7.434 km/s
True Right ascension
14h 31m 27s
True Declination
0° 00' 00"
Sunlit
Object was in daylight at epoch
Visualization orbit readout
Latitude
Unknown
Longitude
Unknown
Altitude
Unknown
Speed
Unknown
Apparent Right ascension
Unknown
Apparent Declination
Unknown
Sunlit
N/A
Visualization observer readout
Local Sidereal Time
21:10:01
Azimuth
Unknown
Elevation
Unknown
Doppler factor
Unknown
Orbital elements
Apogee altitude
841.555 km
Perigee altitude
828.815 km
Semi-major axis
7,213.322 km
Eccentricity
0.00088
Inclination
54.9804°
RAAN
217.8666°
Arg. of periapsis
253.9396°
True anomaly
106.15772°
Mean anomaly
106.0605°
Eccentric anomaly
106.10911°
Mean motion
3.54275 °/min
Orbital period
101.62 mins
BSTAR
-0.000039818
Loading maneuver chart data...
Computing Atmospheric mass density...
Loading historical data...
Loading historical data...
Loading historical data...
Loading historical data...
Loading historical data...
Loading historical data...
Loading historical data...

Documentation

Showing up to 5 results
|